TimeEDT,TemperatureF,Dew PointF,Humidity,Sea Level PressureIn,VisibilityMPH,Wind Direction,Wind SpeedMPH,Gust SpeedMPH,PrecipitationIn,Events,Conditions,WindDirDegrees,DateUTC
12:15 AM,78.8,75.2,89,30.04,7.0,Calm,Calm,-,N/A,,Scattered Clouds,0,2013-07-27 04:15:00
12:35 AM,78.8,77.0,94,30.04,5.0,Calm,Calm,-,N/A,,Scattered Clouds,0,2013-07-27 04:35:00
12:55 AM,78.8,77.0,94,30.03,7.0,ESE,4.6,-,N/A,,Mostly Cloudy,120,2013-07-27 04:55:00
1:15 AM,78.8,77.0,94,30.02,7.0,SE,4.6,-,N/A,,Scattered Clouds,130,2013-07-27 05:15:00
1:35 AM,78.8,77.0,94,30.02,7.0,ESE,5.8,-,N/A,,Scattered Clouds,120,2013-07-27 05:35:00
1:55 AM,78.8,77.0,94,30.01,7.0,ESE,4.6,-,N/A,,Mostly Cloudy,120,2013-07-27 05:55:00
2:15 AM,78.8,77.0,94,30.00,7.0,ESE,4.6,-,N/A,,Mostly Cloudy,120,2013-07-27 06:15:00
2:35 AM,78.8,77.0,94,29.99,7.0,ESE,3.5,-,N/A,,Scattered Clouds,120,2013-07-27 06:35:00
2:55 AM,78.8,77.0,94,29.98,7.0,SE,4.6,-,N/A,,Scattered Clouds,130,2013-07-27 06:55:00
3:15 AM,78.8,78.8,100,29.98,7.0,Calm,Calm,-,N/A,,Scattered Clouds,0,2013-07-27 07:15:00
3:35 AM,78.8,77.0,94,29.98,7.0,SE,3.5,-,N/A,,Scattered Clouds,140,2013-07-27 07:35:00
3:55 AM,78.8,77.0,94,29.98,7.0,Calm,Calm,-,N/A,,Scattered Clouds,0,2013-07-27 07:55:00
4:15 AM,78.8,77.0,94,29.98,7.0,Calm,Calm,-,N/A,,Mostly Cloudy,0,2013-07-27 08:15:00
4:35 AM,78.8,77.0,94,29.98,7.0,Calm,Calm,-,N/A,,Scattered Clouds,0,2013-07-27 08:35:00
4:55 AM,78.8,77.0,94,29.98,5.0,Calm,Calm,-,N/A,,Scattered Clouds,0,2013-07-27 08:55:00
5:15 AM,78.8,77.0,94,29.98,7.0,Calm,Calm,-,N/A,,Mostly Cloudy,0,2013-07-27 09:15:00
5:35 AM,78.8,77.0,94,29.98,7.0,Calm,Calm,-,N/A,,Mostly Cloudy,0,2013-07-27 09:35:00
5:55 AM,78.8,77.0,94,29.99,7.0,Calm,Calm,-,N/A,,Mostly Cloudy,0,2013-07-27 09:55:00
6:15 AM,78.8,77.0,94,29.99,7.0,ESE,3.5,-,N/A,,Overcast,110,2013-07-27 10:15:00
6:35 AM,78.8,77.0,94,29.98,7.0,Calm,Calm,-,N/A,,Mostly Cloudy,0,2013-07-27 10:35:00
6:55 AM,78.8,77.0,94,29.99,7.0,Calm,Calm,-,N/A,,Light Drizzle,0,2013-07-27 10:55:00
7:15 AM,78.8,78.8,100,29.99,5.0,Calm,Calm,-,N/A,,Scattered Clouds,0,2013-07-27 11:15:00
7:35 AM,78.8,78.8,100,29.99,5.0,Calm,Calm,-,N/A,,Clear,0,2013-07-27 11:35:00
7:55 AM,78.8,78.8,100,29.99,5.0,Calm,Calm,-,N/A,,Clear,0,2013-07-27 11:55:00
8:15 AM,80.6,78.8,94,30.00,7.0,Calm,Calm,-,N/A,,Clear,0,2013-07-27 12:15:00
8:35 AM,82.4,77.0,84,29.99,7.0,SSE,3.5,-,N/A,,Scattered Clouds,150,2013-07-27 12:35:00
8:55 AM,82.4,75.2,79,29.99,7.0,SSE,6.9,-,N/A,,Mostly Cloudy,150,2013-07-27 12:55:00
9:15 AM,82.4,77.0,84,30.00,7.0,SSE,3.5,-,N/A,,Mostly Cloudy,150,2013-07-27 13:15:00
9:35 AM,82.4,77.0,84,30.00,5.0,South,3.5,-,N/A,,Haze,170,2013-07-27 13:35:00
9:55 AM,84.2,77.0,79,30.00,7.0,South,6.9,-,N/A,,Overcast,190,2013-07-27 13:55:00
10:15 AM,84.2,77.0,79,30.00,7.0,South,6.9,-,N/A,,Scattered Clouds,170,2013-07-27 14:15:00
10:35 AM,84.2,77.0,79,30.00,7.0,South,6.9,-,N/A,,Scattered Clouds,190,2013-07-27 14:35:00
10:55 AM,84.2,75.2,74,30.00,10.0,SE,5.8,-,N/A,,Scattered Clouds,140,2013-07-27 14:55:00
11:15 AM,86.0,75.2,70,30.00,7.0,South,6.9,-,N/A,,Mostly Cloudy,190,2013-07-27 15:15:00
11:35 AM,86.0,75.2,70,30.00,5.0,South,8.1,-,N/A,,Haze,180,2013-07-27 15:35:00
11:55 AM,86.0,75.2,70,29.99,7.0,SE,8.1,-,N/A,,Mostly Cloudy,140,2013-07-27 15:55:00
12:15 PM,86.0,75.2,70,29.99,7.0,SSE,6.9,-,N/A,,Scattered Clouds,160,2013-07-27 16:15:00
12:35 PM,86.0,77.0,74,29.98,7.0,SSE,4.6,-,N/A,,Scattered Clouds,160,2013-07-27 16:35:00
12:55 PM,86.0,77.0,74,29.98,5.0,South,3.5,-,N/A,,Haze,170,2013-07-27 16:55:00
1:15 PM,86.0,77.0,74,29.97,7.0,SSE,8.1,-,N/A,,Mostly Cloudy,160,2013-07-27 17:15:00
1:35 PM,86.0,77.0,74,29.96,5.0,SSE,5.8,-,N/A,,Haze,150,2013-07-27 17:35:00
1:55 PM,86.0,77.0,74,29.95,5.0,SSE,8.1,-,N/A,,Haze,160,2013-07-27 17:55:00
2:15 PM,86.0,75.2,70,29.94,5.0,South,6.9,-,N/A,,Haze,170,2013-07-27 18:15:00
2:35 PM,86.0,75.2,70,29.93,7.0,SE,3.5,-,N/A,,Scattered Clouds,140,2013-07-27 18:35:00
2:55 PM,86.0,73.4,66,29.93,7.0,SE,8.1,-,N/A,,Scattered Clouds,140,2013-07-27 18:55:00
3:15 PM,86.0,75.2,70,29.93,5.0,SSE,6.9,-,N/A,,Haze,160,2013-07-27 19:15:00
3:35 PM,86.0,73.4,66,29.92,7.0,SSE,8.1,-,N/A,,Clear,150,2013-07-27 19:35:00
3:55 PM,86.0,73.4,66,29.91,7.0,SSE,4.6,-,N/A,Thunderstorm,Clear,160,2013-07-27 19:55:00
4:15 PM,86.0,73.4,66,29.92,7.0,Calm,Calm,-,N/A,Thunderstorm,Clear,0,2013-07-27 20:15:00
4:35 PM,84.2,73.4,70,29.93,4.0,SSE,4.6,-,N/A,Thunderstorm,Haze,160,2013-07-27 20:35:00
4:55 PM,82.4,73.4,74,29.93,7.0,SSE,4.6,-,N/A,Thunderstorm,Clear,150,2013-07-27 20:55:00
5:15 PM,82.4,73.4,74,29.93,5.0,South,3.5,-,N/A,Thunderstorm,Haze,180,2013-07-27 21:15:00
5:35 PM,80.6,73.4,79,29.93,7.0,Calm,Calm,-,N/A,Rain,Light Rain,0,2013-07-27 21:35:00
5:55 PM,80.6,75.2,84,29.92,7.0,SE,3.5,-,N/A,Thunderstorm,Thunderstorm,140,2013-07-27 21:55:00
6:15 PM,82.4,77.0,84,29.92,5.0,South,4.6,-,N/A,,Haze,180,2013-07-27 22:15:00
6:35 PM,82.4,73.4,74,29.92,5.0,SSE,3.5,-,N/A,,Haze,160,2013-07-27 22:35:00
6:55 PM,84.2,75.2,74,29.92,7.0,Calm,Calm,-,N/A,,Scattered Clouds,0,2013-07-27 22:55:00
7:15 PM,82.4,75.2,79,29.93,7.0,SSE,4.6,-,N/A,,Scattered Clouds,150,2013-07-27 23:15:00
7:35 PM,82.4,73.4,74,29.93,7.0,SSE,5.8,-,N/A,,Mostly Cloudy,160,2013-07-27 23:35:00
7:55 PM,82.4,73.4,74,29.93,10.0,Calm,Calm,-,N/A,,Scattered Clouds,0,2013-07-27 23:55:00
8:15 PM,80.6,75.2,84,29.93,7.0,Calm,Calm,-,N/A,,Mostly Cloudy,0,2013-07-28 00:15:00
8:35 PM,80.6,75.2,84,29.94,10.0,Calm,Calm,-,N/A,,Mostly Cloudy,0,2013-07-28 00:35:00
8:55 PM,80.6,75.2,84,29.94,7.0,Calm,Calm,-,N/A,,Scattered Clouds,0,2013-07-28 00:55:00
9:15 PM,80.6,75.2,84,29.93,7.0,Calm,Calm,-,N/A,,Clear,0,2013-07-28 01:15:00
9:35 PM,78.8,77.0,94,29.95,10.0,Calm,Calm,-,N/A,,Mostly Cloudy,0,2013-07-28 01:35:00
9:55 PM,78.8,77.0,94,29.95,7.0,Calm,Calm,-,N/A,,Mostly Cloudy,0,2013-07-28 01:55:00
10:15 PM,78.8,77.0,94,29.95,7.0,Calm,Calm,-,N/A,,Mostly Cloudy,0,2013-07-28 02:15:00
10:35 PM,78.8,77.0,94,29.95,7.0,Calm,Calm,-,N/A,,Mostly Cloudy,0,2013-07-28 02:35:00
10:55 PM,78.8,77.0,94,29.93,7.0,Calm,Calm,-,N/A,,Mostly Cloudy,0,2013-07-28 02:55:00
11:15 PM,78.8,77.0,94,29.93,7.0,Calm,Calm,-,N/A,,Scattered Clouds,0,2013-07-28 03:15:00
11:35 PM,77.0,77.0,100,29.93,7.0,Calm,Calm,-,N/A,,Clear,0,2013-07-28 03:35:00
11:55 PM,77.0,77.0,100,29.94,7.0,Calm,Calm,-,N/A,,Clear,0,2013-07-28 03:55:00